Location: Mohawk View
(42.7837°N, 73.7885°W)
Time: 12:25:34
(UTC+00:00)

Cosmos 2263 Rocket - Pass Details

Date: 17 June 2021
Orbit: 822 x 850 km, 71.0° (Epoch: 26 July)

Event Time Altitude Azimuth Distance (km) Brightness Sun altitude
Rises 01:53:04 0° 329° (NNW) 3,419 7.2 -11.6°
Reaches altitude 10° 01:55:37 10° 323° (NW) 2,481 6.2 -11.9°
Maximum altitude 02:00:59 44° 253° (WSW) 1,157 3.1 -12.5°
Drops below altitude 10° 02:06:20 10° 183° (S) 2,467 4.2 -13.2°
Enters shadow 02:06:34 - 182° (S) 2,549 4.3 -13.2°
